GW5415 Weather Reports


Display with metric or nautical units.
time (UTC)temp
F
wind
direction
speed
MPH
gust
MPH
rain 1hr
in
rain 24hr
in
rain mn
in
humidity
%
barometer
mb
20260505195549 80 89 2.0 3.0 0.00 0.00 0.00 41 1011.6
20260505195047 80 221 2.0 6.0 0.00 0.00 0.00 40 1011.5
20260505194544 79 78 1.0 1.0 0.00 0.00 0.00 42 1011.5
20260505194039 79 139 2.0 2.0 0.00 0.00 0.00 41 1011.5
20260505193537 79 128 4.0 7.0 0.00 0.00 0.00 39 1011.6
20260505193034 79 136 3.0 4.0 0.00 0.00 0.00 40 1011.8
20260505192532 78 69 2.0 3.0 0.00 0.00 0.00 39 1012.0
20260505192030 80 100 2.0 2.0 0.00 0.00 0.00 42 1011.8
20260505191528 79 69 1.0 1.0 0.00 0.00 0.00 40 1012.1
20260505191026 79 88 2.0 3.0 0.00 0.00 0.00 39 1011.8
20260505190520 79 43 3.0 4.0 0.00 0.00 0.00 41 1012.0
20260505190017 78 150 5.0 7.0 0.00 0.00 0.00 37 1012.0
20260505185513 79 78 2.0 4.0 0.00 0.00 0.00 38 1012.3
20260505185010 79 80 2.0 2.0 0.00 0.00 0.00 39 1012.3
20260505184507 78 34 1.0 2.0 0.00 0.00 0.00 39 1012.5
20260505184003 78 322 2.0 3.0 0.00 0.00 0.00 38 1012.7
20260505183500 78 310 2.0 4.0 0.00 0.00 0.00 37 1012.7
20260505182956 78 56 1.0 2.0 0.00 0.00 0.00 39 1012.7
20260505182454 78 154 4.0 6.0 0.00 0.00 0.00 41 1012.9
20260505181950 78 253 3.0 3.0 0.00 0.00 0.00 41 1013.1
20260505181447 78 75 2.0 3.0 0.00 0.00 0.00 37 1013.0
20260505180944 79 168 3.0 6.0 0.00 0.00 0.00 38 1012.9
20260505180440 78 153 3.0 4.0 0.00 0.00 0.00 37 1013.1
20260505175937 78 80 2.0 2.0 0.00 0.00 0.00 39 1013.2
20260505175433 77 209 3.0 3.0 0.00 0.00 0.00 37 1013.4
20260505174930 77 97 2.0 2.0 0.00 0.00 0.00 40 1013.3
20260505174427 77 189 6.0 9.0 0.00 0.00 0.00 37 1013.4
20260505173923 77 75 2.0 3.0 0.00 0.00 0.00 40 1013.5
20260505173420 77 79 0.0 1.0 0.00 0.00 0.00 40 1013.4
20260505172917 77 99 2.0 2.0 0.00 0.00 0.00 40 1013.6
20260505172415 76 40 2.0 3.0 0.00 0.00 0.00 40 1013.8
20260505171914 77 69 2.0 3.0 0.00 0.00 0.00 41 1014.0
20260505171412 77 62 3.0 4.0 0.00 0.00 0.00 39 1014.3
20260505170908 77 208 2.0 3.0 0.00 0.00 0.00 38 1014.4
20260505170405 77 166 2.0 4.0 0.00 0.00 0.00 38 1014.3
20260505165900 77 177 4.0 7.0 0.00 0.00 0.00 37 1014.3
20260505165356 77 43 2.0 3.0 0.00 0.00 0.00 40 1014.3
20260505164852 77 103 4.0 4.0 0.00 0.00 0.00 48 1014.4
20260505164349 76 90 2.0 2.0 0.00 0.00 0.00 44 1014.3
20260505163847 76 108 3.0 3.0 0.00 0.00 0.00 47 1014.1
20260505163345 76 88 1.0 1.0 0.00 0.00 0.00 47 1014.3
20260505162844 76 165 3.0 4.0 0.00 0.00 0.00 49 1014.5
20260505162339 76 40 2.0 2.0 0.00 0.00 0.00 47 1014.6
20260505161837 76 178 1.0 2.0 0.00 0.00 0.00 48 1014.4
20260505161334 76 55 2.0 2.0 0.00 0.00 0.00 47 1014.5
20260505160831 76 86 1.0 2.0 0.00 0.00 0.00 51 1014.5
20260505160329 75 111 1.0 2.0 0.00 0.00 0.00 53 1014.4
20260505153308 76 107 2.0 2.0 0.00 0.00 0.00 49 1014.4
20260505152805 75 86 0.0 0.0 0.00 0.00 0.00 52 1014.4
20260505152304 74 70 2.0 3.0 0.00 0.00 0.00 50 1014.4
20260505151801 73 79 0.0 0.0 0.00 0.00 0.00 54 1014.4
20260505151259 73 143 3.0 3.0 0.00 0.00 0.00 53 1014.5
20260505150756 73 351 2.0 2.0 0.00 0.00 0.00 51 1014.5
20260505150253 73 85 1.0 2.0 0.00 0.00 0.00 51 1014.5
20260505140223 69 92 1.0 2.0 0.00 0.00 0.00 56 1014.4
20260505130147 64 71 1.0 1.0 0.00 0.00 0.00 65 1014.5
20260505124637 64 91 0.0 0.0 0.00 0.00 0.00 66 1014.1
20260505124133 63 91 0.0 0.0 0.00 0.00 0.00 68 1014.1
20260505123629 60 90 0.0 0.0 0.00 0.00 0.00 69 1014.3
20260505123126 59 90 0.0 0.0 0.00 0.00 0.00 72 1014.3
20260505122623 59 90 0.0 0.0 0.00 0.00 0.00 72 1014.3
20260505122120 59 87 1.0 1.0 0.00 0.00 0.00 75 1014.1
20260505121616 59 86 0.0 0.0 0.00 0.00 0.00 74 1014.3
20260505121113 56 86 0.0 0.0 0.00 0.00 0.00 78 1013.9
20260505120609 56 87 1.0 1.0 0.00 0.00 0.00 81 1014.0
20260505120105 55 81 0.0 0.0 0.00 0.00 0.00 82 1014.0
20260505115600 55 68 0.0 0.0 0.00 0.00 0.00 78 1013.9
20260505115057 53 68 0.0 0.0 0.00 0.00 0.00 83 1013.9
20260505114555 52 68 0.0 0.0 0.00 0.00 0.00 86 1013.6
20260505114050 50 70 0.0 0.0 0.00 0.00 0.00 91 1013.7
20260505113547 49 73 0.0 0.0 0.00 0.00 0.00 95 1013.7
20260505113044 48 68 0.0 0.0 0.00 0.00 0.00 95 1013.4
20260505112540 48 62 0.0 0.0 0.00 0.00 0.00 95 1013.1
20260505112039 47 62 0.0 0.0 0.00 0.00 0.00 95 1013.0
20260505111538 47 62 0.0 0.0 0.00 0.00 0.00 95 1012.9
20260505111034 46 62 0.0 0.0 0.00 0.00 0.00 96 1013.2
20260505110531 46 62 0.0 0.0 0.00 0.00 0.00 95 1012.9
20260505102003 46 62 0.0 0.0 0.00 0.00 0.00 95 1012.9
20260505101501 46 62 0.0 0.0 0.00 0.00 0.00 95 1013.1
20260505100957 46 62 0.0 0.0 0.00 0.00 0.00 95 1013.1
20260505100455 46 62 0.0 0.0 0.00 0.00 0.00 95 1013.0
20260505095951 46 62 0.0 0.0 0.00 0.00 0.00 95 1013.1
20260505095448 46 62 0.0 0.0 0.00 0.00 0.00 94 1013.1
20260505094944 47 62 0.0 0.0 0.00 0.00 0.00 94 1013.1
20260505094441 47 62 0.0 0.0 0.00 0.00 0.00 95 1012.8
20260505093937 47 62 0.0 0.0 0.00 0.00 0.00 95 1012.9
20260505093434 47 62 0.0 0.0 0.00 0.00 0.00 95 1012.7
20260505092931 47 62 0.0 0.0 0.00 0.00 0.00 95 1012.8
20260505092429 47 62 0.0 0.0 0.00 0.00 0.00 95 1013.0
20260505091926 47 62 0.0 0.0 0.00 0.00 0.00 94 1013.0
20260505091423 47 62 0.0 0.0 0.00 0.00 0.00 94 1012.8
20260505090921 47 62 0.0 0.0 0.00 0.00 0.00 94 1012.9
20260505090419 47 62 0.0 0.0 0.00 0.00 0.00 94 1012.9
20260505085916 47 62 0.0 0.0 0.00 0.00 0.00 93 1012.8
20260505085414 48 62 0.0 0.0 0.00 0.00 0.00 93 1013.1
20260505084912 48 62 0.0 0.0 0.00 0.00 0.00 93 1013.0
20260505084410 48 62 0.0 0.0 0.00 0.00 0.00 93 1013.1
20260505083908 48 62 0.0 0.0 0.00 0.00 0.00 93 1012.9
20260505083405 48 62 0.0 0.0 0.00 0.00 0.00 93 1013.1
20260505082901 48 62 0.0 0.0 0.00 0.00 0.00 92 1012.8
20260505082357 48 62 0.0 0.0 0.00 0.00 0.00 92 1012.7
20260505081854 48 62 0.0 0.0 0.00 0.00 0.00 92 1012.9
20260505081350 48 62 0.0 0.0 0.00 0.00 0.00 92 1012.9
20260505080847 48 62 0.0 0.0 0.00 0.00 0.00 91 1012.9
20260505080343 49 62 0.0 0.0 0.00 0.00 0.00 91 1012.8
20260505075839 49 62 0.0 0.0 0.00 0.00 0.00 91 1012.7
20260505075336 49 62 0.0 0.0 0.00 0.00 0.00 90 1012.8
20260505074833 49 62 0.0 0.0 0.00 0.00 0.00 90 1012.8
20260505074330 50 62 0.0 0.0 0.00 0.00 0.00 89 1012.8
20260505073828 50 62 0.0 0.0 0.00 0.00 0.00 88 1012.6
20260505073326 51 62 0.0 0.0 0.00 0.00 0.00 87 1012.7
20260505072822 51 62 0.0 0.0 0.00 0.00 0.00 86 1012.7
20260505072319 52 62 0.0 0.0 0.00 0.00 0.00 85 1012.8
20260505071814 52 62 0.0 0.0 0.00 0.00 0.00 86 1012.9
20260505071311 51 62 0.0 0.0 0.00 0.00 0.00 87 1012.7
20260505070809 51 62 0.0 0.0 0.00 0.00 0.00 87 1013.0
20260505070305 51 62 0.0 0.0 0.00 0.00 0.00 86 1012.8
20260505065800 52 62 0.0 0.0 0.00 0.00 0.00 85 1012.9
20260505065258 52 62 0.0 0.0 0.00 0.00 0.00 84 1013.0
20260505064755 52 62 0.0 0.0 0.00 0.00 0.00 84 1012.9
20260505064252 52 62 0.0 0.0 0.00 0.00 0.00 85 1012.9
20260505063750 53 62 0.0 0.0 0.00 0.00 0.00 83 1013.0
20260505063246 53 62 0.0 0.0 0.00 0.00 0.00 83 1013.0
20260505062742 53 62 0.0 0.0 0.00 0.00 0.00 83 1013.1
20260505062240 53 62 0.0 0.0 0.00 0.00 0.00 84 1013.0
20260505061737 53 62 0.0 0.0 0.00 0.00 0.00 84 1013.0
20260505061235 53 62 0.0 0.0 0.00 0.00 0.00 83 1012.9
20260505060732 53 63 0.0 0.0 0.00 0.00 0.00 85 1013.0
20260505060229 53 65 0.0 0.0 0.00 0.00 0.00 85 1013.0
20260505055724 53 64 1.0 1.0 0.00 0.00 0.00 85 1012.9
20260505055221 53 62 0.0 0.0 0.00 0.00 0.00 85 1012.8
20260505054718 53 68 0.0 0.0 0.00 0.00 0.00 84 1012.8
20260505054216 53 68 0.0 1.0 0.00 0.00 0.00 84 1012.9
20260505053714 54 68 0.0 0.0 0.00 0.00 0.00 84 1012.8
20260505053210 54 69 0.0 0.0 0.00 0.00 0.00 83 1012.8
20260505052707 54 69 0.0 0.0 0.00 0.00 0.00 83 1012.9
20260505052204 53 69 0.0 0.0 0.00 0.00 0.00 83 1012.7
20260505051701 54 69 0.0 0.0 0.00 0.00 0.00 84 1012.8
20260505051159 54 69 0.0 0.0 0.00 0.00 0.00 83 1012.8
20260505050657 54 69 0.0 0.0 0.00 0.00 0.00 83 1012.7
20260505050155 54 70 0.0 0.0 0.00 0.00 0.00 83 1012.7
20260505041625 54 70 0.0 0.0 0.00 0.00 0.00 83 1012.7
20260505041122 55 70 0.0 0.0 0.00 0.00 0.00 81 1012.8
20260505040619 55 70 0.0 0.0 0.00 0.00 0.00 81 1012.8
20260505040116 55 69 0.0 0.0 0.00 0.00 0.00 80 1012.9
20260505035612 55 70 0.0 0.0 0.00 0.00 0.00 81 1012.9
20260505035109 56 70 0.0 0.0 0.00 0.00 0.00 80 1012.8
20260505034605 56 70 0.0 0.0 0.00 0.00 0.00 79 1012.8
20260505034102 56 73 0.0 0.0 0.00 0.00 0.00 79 1012.8
20260505033559 56 73 0.0 0.0 0.00 0.00 0.00 78 1012.8
20260505033058 57 73 0.0 0.0 0.00 0.00 0.00 76 1012.9
20260505032555 57 73 0.0 0.0 0.00 0.00 0.00 76 1012.8
20260505032051 57 73 0.0 0.0 0.00 0.00 0.00 76 1012.8
20260505031549 57 73 0.0 0.0 0.00 0.00 0.00 76 1012.7
20260505031045 58 73 0.0 0.0 0.00 0.00 0.00 75 1012.8
20260505030542 58 73 0.0 0.0 0.00 0.00 0.00 74 1013.0
20260505030038 59 73 0.0 0.0 0.00 0.00 0.00 72 1012.8
20260505025534 59 73 0.0 0.0 0.00 0.00 0.00 70 1013.0
20260505025033 59 83 0.0 0.0 0.00 0.00 0.00 70 1012.8
20260505024529 59 84 0.0 0.0 0.00 0.00 0.00 69 1013.0
20260505024026 59 84 0.0 0.0 0.00 0.00 0.00 70 1013.1
20260505023523 60 84 0.0 0.0 0.00 0.00 0.00 69 1012.9
20260505023021 60 84 0.0 0.0 0.00 0.00 0.00 67 1013.0
20260505022519 61 84 0.0 0.0 0.00 0.00 0.00 65 1012.9
20260505022016 62 84 0.0 0.0 0.00 0.00 0.00 64 1013.1
20260505021512 62 84 0.0 0.0 0.00 0.00 0.00 62 1012.8
20260505021008 63 84 0.0 0.0 0.00 0.00 0.00 61 1012.8
20260505020503 63 84 0.0 0.0 0.00 0.00 0.00 59 1012.8
20260505020000 63 84 0.0 0.0 0.00 0.00 0.00 60 1012.8
20260505015457 64 84 0.0 0.0 0.00 0.00 0.00 59 1012.9
20260505014954 64 84 0.0 0.0 0.00 0.00 0.00 59 1012.7
20260505014451 64 84 0.0 0.0 0.00 0.00 0.00 58 1012.7
20260505013948 64 84 0.0 0.0 0.00 0.00 0.00 58 1012.7
20260505013445 64 84 0.0 0.0 0.00 0.00 0.00 57 1012.7
20260505012943 65 84 0.0 0.0 0.00 0.00 0.00 57 1012.7
20260505012441 65 84 0.0 0.0 0.00 0.00 0.00 56 1012.7
20260505011937 65 82 0.0 0.0 0.00 0.00 0.00 57 1012.5
20260505011433 66 82 0.0 0.0 0.00 0.00 0.00 55 1012.4
20260505010930 67 81 0.0 0.0 0.00 0.00 0.00 54 1012.4
20260505010426 67 86 0.0 0.0 0.00 0.00 0.00 54 1012.5
20260505005922 67 86 0.0 0.0 0.00 0.00 0.00 53 1012.6
20260505005419 68 84 0.0 0.0 0.00 0.00 0.00 53 1012.5
20260505004916 68 80 0.0 0.0 0.00 0.00 0.00 52 1012.5
20260505004413 69 85 1.0 1.0 0.00 0.00 0.00 50 1012.3
20260505003910 69 80 0.0 0.0 0.00 0.00 0.00 51 1012.4
20260505003407 69 83 0.0 0.0 0.00 0.00 0.00 51 1012.4
20260505002903 69 82 1.0 2.0 0.00 0.00 0.00 51 1012.1
20260505002400 70 80 0.0 0.0 0.00 0.00 0.00 49 1012.1
20260505001858 71 105 1.0 1.0 0.00 0.00 0.00 49 1012.0
20260505001355 71 83 0.0 1.0 0.00 0.00 0.00 49 1012.0
20260505000853 72 80 1.0 1.0 0.00 0.00 0.00 48 1012.1
20260505000351 72 78 1.0 1.0 0.00 0.00 0.00 46 1012.2
20260504235846 72 76 0.0 0.0 0.00 0.00 0.00 47 1011.8
20260504235343 73 79 0.0 0.0 0.00 0.00 0.00 47 1012.0
20260504234840 73 80 0.0 0.0 0.00 0.00 0.00 47 1012.1
20260504234338 73 91 1.0 1.0 0.00 0.00 0.00 47 1011.9
20260504233834 73 94 3.0 3.0 0.00 0.00 0.00 46 1012.2
20260504233330 73 67 1.0 1.0 0.00 0.00 0.00 47 1012.0
20260504232827 73 88 1.0 1.0 0.00 0.00 0.00 47 1012.0
20260504232324 74 91 0.0 1.0 0.00 0.00 0.00 48 1012.1
20260504231821 74 107 0.0 0.0 0.00 0.00 0.00 48 1012.1
20260504231317 74 103 2.0 2.0 0.00 0.00 0.00 47 1012.0
20260504230813 74 122 2.0 3.0 0.00 0.00 0.00 47 1012.0
20260504230311 74 92 1.0 1.0 0.00 0.00 0.00 46 1011.9
20260504225810 75 72 2.0 3.0 0.00 0.00 0.00 46 1011.9
20260504225306 75 70 2.0 3.0 0.00 0.00 0.00 45 1012.1
20260504224803 75 85 0.0 1.0 0.00 0.00 0.00 46 1012.0
20260504224300 76 243 2.0 4.0 0.00 0.00 0.00 44 1011.9
20260504223757 76 94 2.0 2.0 0.00 0.00 0.00 44 1011.8
20260504223252 77 128 2.0 2.0 0.00 0.00 0.00 43 1012.0
20260504222749 76 67 2.0 2.0 0.00 0.00 0.00 42 1012.1
20260504222246 77 122 2.0 2.0 0.00 0.00 0.00 42 1012.0
20260504221744 76 92 0.0 0.0 0.00 0.00 0.00 42 1012.0
20260504221241 77 46 2.0 2.0 0.00 0.00 0.00 42 1012.3
20260504220737 77 70 1.0 2.0 0.00 0.00 0.00 42 1012.0
20260504220235 77 81 1.0 1.0 0.00 0.00 0.00 42 1012.1
20260504215732 78 77 2.0 2.0 0.00 0.00 0.00 42 1012.1
20260504215228 78 132 2.0 3.0 0.00 0.00 0.00 38 1012.2
20260504214724 77 75 2.0 2.0 0.00 0.00 0.00 42 1012.0
20260504214221 77 130 2.0 3.0 0.00 0.00 0.00 40 1012.1
20260504213718 77 90 0.0 0.0 0.00 0.00 0.00 43 1012.0
20260504213214 78 78 1.0 1.0 0.00 0.00 0.00 40 1012.0
20260504212711 77 83 1.0 1.0 0.00 0.00 0.00 42 1012.0
20260504212208 78 100 4.0 8.0 0.00 0.00 0.00 40 1012.1
20260504211705 78 83 1.0 2.0 0.00 0.00 0.00 44 1012.2
20260504211201 78 79 1.0 2.0 0.00 0.00 0.00 44 1012.1
20260504210659 79 80 3.0 3.0 0.00 0.00 0.00 41 1012.2
20260504210155 80 66 0.0 1.0 0.00 0.00 0.00 41 1012.1
20260504205653 79 76 0.0 1.0 0.00 0.00 0.00 41 1012.2
20260504205150 79 107 2.0 3.0 0.00 0.00 0.00 42 1012.4
20260504204648 79 90 2.0 2.0 0.00 0.00 0.00 43 1012.2
20260504204147 78 88 1.0 1.0 0.00 0.00 0.00 41 1012.3
20260504203645 79 67 0.0 0.0 0.00 0.00 0.00 43 1012.4
20260504203143 79 102 2.0 3.0 0.00 0.00 0.00 43 1012.3
20260504202643 79 100 1.0 1.0 0.00 0.00 0.00 43 1012.4
20260504202140 79 120 2.0 3.0 0.00 0.00 0.00 40 1012.6
20260504201637 79 158 3.0 4.0 0.00 0.00 0.00 38 1012.6
20260504201135 78 71 2.0 4.0 0.00 0.00 0.00 40 1012.7
20260504200631 78 84 2.0 3.0 0.00 0.00 0.00 46 1012.7
20260504200128 80 117 4.0 4.0 0.00 0.00 0.00 43 1012.6